Location: Armstrong
(40.9123°N, 82.0110°W)
Time: 07:18:02
(UTC+00:00)

Cosmos 2227 Rocket - Pass Details

Date: 29 October 2020
Orbit: 839 x 845 km, 71.0° (Epoch: 30 November)

Event Time Altitude Azimuth Distance (km) Brightness Sun altitude
Rises 23:40:36 0° 335° (NNW) 3,405 5.6 -14.4°
Reaches altitude 10° 23:43:03 10° 335° (NNW) 2,468 4.9 -14.9°
Maximum altitude 23:48:43 84° 248° (WSW) 852 2.2 -16.0°
Drops below altitude 10° 23:54:22 10° 161° (SSE) 2,456 4.5 -17.0°
Sets 23:56:48 0° 160° (SSE) 3,388 5.2 -17.5°
